User: anonymous   Login
Location: Caltech
(34.1382°N, 118.1253°W)
Time: 07:36:43
(UTC-07:00)
Language:

Meteor 1-11 Rocket - Orbit

View from above orbital plane
View from above orbital plane
View from above satellite
View from above satellite

Ground track
Ground track

The orbit data is extracted from the following two-line orbital elements,

1  5918U 72022B   17201.38210604 +.00000005 +00000-0 -41029-5 0  9998
2  5918 081.2387 293.7579 0057599 232.6518 126.9396 14.05826319322392
Epoch (UTC): 20 July 2017 09:10:13
Eccentricity: 0.0057599
inclination: 81.2387°
perigee height: 832 km
apogee height: 915 km
right ascension of ascending node: 293.7579°
argument of perigee: 232.6518°
revolutions per day: 14.05826319
mean anomaly at epoch: 126.9396°
orbit number at epoch: 32239

The dashed part of the orbit path shows where the satellite is in the earth's shadow,  

DLR